Flag for U.S.A. Weather past 2 weeks in Fort Lauderdale, Florida, U.S.A.

Now
87 °F

Partly sunny.


Feels Like: 95 °F
Forecast: 81 / 86 °F
Wind: 20 mph from East

Location: Fort Lauderdale / Hollywood International Airport

Current Time: May 25, 2015 at 3:55:58 PM

Latest Report: May 25, 2015 at 2:53 PM


Visibility: 10 mi

Pressure: 30.14 "Hg

Humidity: 65%

Dew point: 74 °F

Location of Fort LauderdaleLocation

Historic Weather in Fort Lauderdale — Graph

°F

Fort Lauderdale temperature yesterday

Maximum temperature yesterday: 87 °F (at 12:53 PM)
Minimum temperature yesterday: 79 °F (at 4:53 AM)
Average temperature yesterday: 82 °F

Past Weeks' High & Low Weather Summary

 TemperatureHumidityPressure
High90 °F (May 21, 12:53 PM)94% (May 20, 4:53 AM)30.20 "Hg (May 20, 4:53 AM)
Low74 °F (May 20, 4:53 AM)49% (May 20, 3:53 PM)29.93 "Hg (May 20, 6:53 PM)
Average81 °F73%30.10 "Hg
* Reported May 10 2:53 PM — May 25 2:53 PM, Fort Lauderdale, Weather by CustomWeather, © 2015

Note: Actual official high and low records may vary slightly from our data, if they occured in-between our weather recording intervals... More about our weather records

Advertising

Fort Lauderdale weather history for previous 24 hours

 ConditionsComfort  
Time TempWeatherWind HumidityBarometerVisibility
2:53 PM
Mon, May 25
87 °FPartly sunny.20 mph65%30.14 "Hg10 mi
1:53 PM87 °FBroken clouds.16 mph65%30.15 "Hg10 mi
12:53 PM86 °FScattered clouds.17 mph67%30.17 "Hg10 mi
11:53 AM86 °FBroken clouds.18 mph72%30.16 "Hg10 mi
10:53 AM85 °FScattered clouds.17 mph77%30.17 "Hg10 mi
9:53 AM83 °FPartly sunny.14 mph74%30.16 "Hg10 mi
8:53 AM83 °FBroken clouds.15 mph74%30.15 "Hg10 mi
7:53 AM82 °FPartly sunny.16 mph79%30.14 "Hg10 mi
6:53 AM80 °FPartly cloudy.15 mph85%30.12 "Hg10 mi
5:53 AM80 °FPassing clouds.14 mph81%30.11 "Hg10 mi
4:53 AM80 °FPassing clouds.14 mph81%30.11 "Hg10 mi
3:53 AM80 °FPassing clouds.15 mph79%30.11 "Hg10 mi
2:53 AM80 °FPassing clouds.13 mph79%30.11 "Hg10 mi
1:53 AM80 °FPassing clouds.16 mph81%30.13 "Hg10 mi
12:53 AM80 °FPartly cloudy.10 mph81%30.15 "Hg10 mi
11:53 PM
Sun, May 24
81 °FPassing clouds.15 mph74%30.16 "Hg10 mi
10:53 PM81 °FPassing clouds.18 mph74%30.15 "Hg10 mi
9:53 PM81 °FPartly cloudy.16 mph74%30.14 "Hg10 mi
8:53 PM82 °FBroken clouds.13 mph72%30.13 "Hg10 mi
7:53 PM82 °FPartly sunny.14 mph72%30.11 "Hg10 mi
6:53 PM83 °FScattered clouds.17 mph72%30.11 "Hg10 mi
5:53 PM84 °FScattered clouds.16 mph70%30.10 "Hg10 mi
4:53 PM84 °FScattered clouds.17 mph72%30.12 "Hg10 mi
3:53 PM86 °FScattered clouds.18 mph67%30.13 "Hg10 mi
Weather by CustomWeather, © 2015

See weather overviewHow to use our weather pages